Weather in Fiorentino

San Marino     43°54′34″N   12°27′35″E
temp.,
°C
wind,
m/s
gust,
m/s
humid.,
%
clouds,
%
prec.,
mm/h
press.,
hPa
HPBL,
m
14 may, fri
fri1423:00+11ssw33630 0.0 100741
02:00+12sw512660 0.0 1007676
05:00+12wsw486790 0.0 1007296
08:00+14ssw356614 0.0 1008325
11:00+19sse124887 0.0 10091472
14:00+18ese2456100 0.0 10091039
17:00+18ssw71054100 0.0 10081007
20:00+15s3465100 0.0 1009203
15 may, sat
sat1523:00+11sw1289100 2.3 101167
02:00+11w1189100 3.1 101141
05:00+11wsw228599 0.0 101055
08:00+12sw1180100 0.0 101278
11:00+17ne115894 0.0 1012949
14:00+18e345597 0.1 10101207
17:00+18nnw0462100 0.1 1009516
20:00+16sw246096 0.1 1009224
16 may, sun
sun1623:00+16wsw81653100 0.0 10101226
02:00+16sw4951100 0.0 1009509
05:00+13ssw3658100 0.0 1009127
08:00+14ssw3565100 0.0 1009180
11:00+20sw6115599 0.0 10101500
14:00+20ssw5106185 0.0 10091316
17:00+21wsw51059100 0.1 10081528
20:00+18wsw3471100 0.3 1008105
17 may, mon
mon1723:00+16ssw367715 0.0 1008100
02:00+14ssw348098 0.0 100769
05:00+13ssw458161 0.0 100879
08:00+17ssw3670100 0.0 1008435
11:00+21wsw61146100 0.0 10091508
14:00+23wsw7124214 0.0 10082065
17:00+22w714422 0.0 10071584
20:00+18wsw715360 0.0 1008722
18 may, tue
tue1823:00+16wsw6144329 0.0 1010730
02:00+15wsw715505 0.0 10101001
05:00+14w612590 0.0 1010753
08:00+15wnw46655 0.0 1012910
11:00+19nw455072 0.0 10121724
14:00+16nnw457514 2.6 1012673
17:00+13nnw2488100 6.8 1013314
20:00+13w2288100 9.7 101587